Weather History for Boise, ID

Change the Weather History Date:

Friday, June 7, 2013

  Actual Average Record
Temperature  
Mean Temperature 77 °F 65 °F  
Max Temperature 91 °F 78 °F 100 °F (1897)
Min Temperature 63 °F 52 °F 31 °F (1995)
Degree Days  
Heating Degree Days 0 3  
Month to date heating degree days 2 25  
Since 1 June heating degree days 2 25  
Since 1 July heating degree days 5316 5475  
Cooling Degree Days 12 3  
Month to date cooling degree days 30 20  
Year to date cooling degree days 77 64  
Since 1 June cooling degree days 30 20  
Growing Degree Days 27 (Base 50)    
Moisture  
Dew Point 41 °F    
Average Humidity 32    
Maximum Humidity 52    
Minimum Humidity 12    
Precipitation  
Precipitation 0.00 in 0.03 in 0.97 in (1941)
Month to date precipitation 0.00 0.23  
Year to date precipitation 3.92 6.47  
Snow  
Snow 0.00 in 0.00 in T in (1950)
Month to date snowfall 0.0 0.0  
Since 1 July snowfall 16.0 19.2  
Snow Depth 0.00 in    
Sea Level Pressure  
Sea Level Pressure 29.85 in    
Wind  
Wind Speed 10 mph (NW)    
Max Wind Speed 20 mph    
Max Gust Speed 26 mph    
Visibility 10 miles    
Events      
T = Trace of Precipitation, MM = Missing Value Source: NWS Daily Summary

Daily Weather History Graph

Daily Weather History Graph

Search for Another Location

Airport:

Trip Planner

Search our weather history database for the weather conditions in past years. The results will help you decide how hot, cold, wet, or windy it might be!

Date:

Astronomy

Jun. 07, 2013 Rise Set
Actual Time 6:04 AM MDT 9:23 PM MDT
Civil Twilight 5:28 AM MDT 9:59 PM MDT
Nautical Twilight 4:42 AM MDT 10:45 PM MDT
Astronomical Twilight 3:45 AM MDT 11:42 PM MDT
Moon 5:32 AM MDT (6/7) 8:39 PM MDT (6/7)
Length of Visible Light 16h 30m
Length of Day
15h 19m
Waning Crescent, 1% of the Moon is Illuminated
Jun 7
Waning Crescent
Jun 8
New
Jun 16
First Quarter
Jun 23
Full
Jun 29
Last Quarter

Hourly Weather History & Observations

Time (MDT) Temp. Dew Point Humidity Pressure Visibility Wind Dir Wind Speed Gust Speed Precip Events Conditions
12:53 AM 70.0 °F 41.0 °F 35% 29.83 in 10.0 mi SE 5.8 mph - N/A   Clear
1:53 AM 71.1 °F 41.0 °F 34% 29.83 in 10.0 mi South 6.9 mph - N/A   Clear
2:53 AM 68.0 °F 41.0 °F 37% 29.83 in 10.0 mi SSE 5.8 mph - N/A   Clear
3:53 AM 64.9 °F 43.0 °F 45% 29.85 in 10.0 mi South 3.5 mph - N/A   Clear
4:53 AM 64.9 °F 46.0 °F 50% 29.85 in 10.0 mi SSE 4.6 mph - N/A   Clear
5:53 AM 64.0 °F 43.0 °F 46% 29.87 in 10.0 mi SSE 5.8 mph - N/A   Clear
6:53 AM 63.0 °F 43.0 °F 48% 29.88 in 10.0 mi SE 5.8 mph - N/A   Clear
7:53 AM 66.0 °F 48.9 °F 54% 29.90 in 10.0 mi Calm Calm - N/A   Clear
8:53 AM 70.0 °F 46.9 °F 44% 29.99 in 10.0 mi Calm Calm - N/A   Clear
9:53 AM 73.9 °F 48.0 °F 40% 29.92 in 10.0 mi NNW 8.1 mph - N/A   Clear
10:53 AM 78.1 °F 46.9 °F 33% 29.91 in 10.0 mi WNW 10.4 mph - N/A   Clear
11:53 AM 81.0 °F 44.1 °F 27% 29.90 in 10.0 mi WNW 12.7 mph 18.4 mph N/A   Clear
12:53 PM 86.0 °F 36.0 °F 17% 29.88 in 10.0 mi NW 12.7 mph 19.6 mph N/A   Clear
1:53 PM 87.1 °F 37.9 °F 18% 29.87 in 10.0 mi NNW 13.8 mph 23.0 mph N/A   Clear
2:53 PM 90.0 °F 37.9 °F 16% 29.85 in 10.0 mi NNW 15.0 mph 23.0 mph N/A   Clear
3:53 PM 91.0 °F 33.1 °F 13% 29.83 in 10.0 mi NW 16.1 mph 24.2 mph N/A   Clear
4:53 PM 91.0 °F 32.0 °F 12% 29.81 in 10.0 mi NW 16.1 mph 23.0 mph N/A   Clear
5:53 PM 90.0 °F 33.1 °F 13% 29.79 in 10.0 mi NW 15.0 mph 21.9 mph N/A   Clear
6:53 PM 91.0 °F 35.1 °F 14% 29.77 in 10.0 mi NNW 13.8 mph 20.7 mph N/A   Clear
7:53 PM 89.1 °F 37.9 °F 16% 29.77 in 10.0 mi NW 17.3 mph - N/A   Clear
8:53 PM 84.9 °F 41.0 °F 21% 29.77 in 10.0 mi NW 17.3 mph 23.0 mph N/A   Clear
9:53 PM 81.0 °F 42.1 °F 25% 29.79 in 10.0 mi NNW 9.2 mph - N/A   Clear
10:53 PM 77.0 °F 43.0 °F 30% 29.81 in 10.0 mi NW 9.2 mph - N/A   Clear
11:53 PM 75.9 °F 42.1 °F 30% 29.83 in 10.0 mi WNW 12.7 mph - N/A   Clear